User: anonymous   Login
Location: Lac Lasalle
(46.0398°N, 74.1576°W)
Time: 06:28:04
(UTC-05:00)
Language:

SEEDS - Orbit

View from above orbital plane
View from above orbital plane
View from above satellite
View from above satellite

Ground track
Ground track

The orbit data is extracted from the following two-line orbital elements,

1 32791U 08021J   21026.52232772  .00000791  00000-0  84766-4 0  9996
2 32791  97.5583  17.0483 0014724  80.2966 279.9915 14.91258420691704
Epoch (UTC): 26 January 2021 12:32:09
Eccentricity: 0.0014724
inclination: 97.5583°
perigee height: 584 km
apogee height: 604 km
right ascension of ascending node: 17.0483°
argument of perigee: 80.2966°
revolutions per day: 14.91258420
mean anomaly at epoch: 279.9915°
orbit number at epoch: 69170

The dashed part of the orbit path shows where the satellite is in the earth's shadow,  

DLR